Aérodrome :
LOGIN :

S'inscrire | Disclaimer

   EN    FR    IT 

 










Légende :    VFR   VFR Marginal   IFR   IFR Intensif   IFR Très Intensif
Visi : 
Plafond : 
>= 8 km
>= 3000ft
5 à 8 km
1000 à 3000 ft
1500m à 5 km
500 à 1000 ft
800 à 1500m
200 à 500 ft
< 800m
< 200 ft
Symboles :   Orages  Brouillard  Fortes neiges  Fortes précipitations  Vent > 20 kt
SIGMETs :   Divers  Orages  Givrage  Turbulence  Onde Orograph.  Cendres Volcan.






- Altitude de l'aérodrome : 75 ft
- Code IATA : YEO


EGDY - RNAS Yeovilton

DERNIER METAR :
  • 040920Z AUTO 05010KT 9999 OVC012/// 04/02 Q1015

METARs EXPIRÉS :
  • 040850Z AUTO 04011KT 9999 BKN013/// BKN030/// 04/02 Q1015
  • 040820Z AUTO 03012KT 9999 OVC029/// 04/02 Q1015
  • 040750Z AUTO 03013KT 9999 OVC028/// 04/02 Q1015
  • 040720Z AUTO 04012KT 9999 OVC027/// 04/02 Q1015
  • 040650Z AUTO 03010KT 9999 OVC025/// 04/01 Q1015
  • 040620Z AUTO 03011KT 9999 OVC025/// 04/01 Q1015

Prévision TAF périmée.



MET'MAP, la Météo Aéronautique d'un coup d'oeil ! - Copyright ORBIFLY Décembre 2007 - Disclaimer

ORBIFLY MET'MAP TEAM :

Programmation & Développement : Alexandra Zaïnal
Sur une idée originale de : Baudouin d'Aumeries
Soutien technique & logistique : Manuel Goepfert
Assistance : Marc-Olivier Méhu




SOURCES & CREDITS :

   NOAA